{"data":{"norad_id":26700,"intl_designator":"2001-006B","name":"ISS (DESTINY)","alt_names":[],"object_type":"PAYLOAD","status":"ACTIVE","operator":null,"country":"ISS","launch_date":"2001-02-07","launch_site_code":"AFETR","launch_vehicle":null,"mission":null,"orbit_class":"UNKNOWN","rcs_meters":15,"size_class":null,"mass_kg":null,"dimensions":null,"purposes":[],"wikipedia_slug":null,"has_3d_model":false,"image_url":null,"decayed_at":null,"tle_current":{"epoch":"2026-09-19T19:40:49.539648Z","epoch_age_seconds":70928,"freshness":"FRESH","line1":"1 26700U 01006B   26262.82001782  .00006637  00000+0  12771-3 0  9990","line2":"2 26700  51.6308 191.7362 0004804 159.3703 200.7480 15.49182662586906","mean_motion":15.49182662,"eccentricity":0.0004804,"inclination_deg":51.6308,"raan_deg":191.7362,"arg_perigee_deg":159.3703,"mean_anomaly_deg":200.748,"bstar":0.00012771,"rev_number":58690,"period_min":92.952240902371,"perigee_km":415.85040720167,"apogee_km":422.38120769907,"semimajor_km":6797.2528074504,"source":"CELESTRAK","updated_at":"2026-09-20T09:00:13.576501Z"}}}